Time,TemperatureF,DewpointF,PressureIn,WindDirection,WindDirectionDegrees,WindSpeedMPH,WindSpeedGustMPH,Humidity,HourlyPrecipIn,Conditions,Clouds,dailyrainin,SolarRadiationWatts/m^2,SoftwareType,DateUTC
2013-09-08 00:22:00,82.0,42.0,-100.00,South,189,17.0,24.0,24,0.00,,,0.00,700.000000,,2013-09-08 00:22:00,
2013-09-08 00:32:00,82.0,42.0,-100.00,South,189,17.0,24.0,24,0.00,,,0.00,700.000000,,2013-09-08 00:32:00,
2013-09-08 00:42:00,82.0,42.0,-100.00,South,189,17.0,24.0,24,0.00,,,0.00,700.000000,,2013-09-08 00:42:00,
2013-09-08 00:52:00,82.0,42.0,-100.00,South,189,17.0,24.0,24,0.00,,,0.00,700.000000,,2013-09-08 00:52:00,
2013-09-08 01:22:00,79.0,42.0,-100.00,South,191,17.0,25.0,27,0.00,,,0.00,422.000000,,2013-09-08 01:22:00,
2013-09-08 01:32:00,79.0,42.0,-100.00,South,191,17.0,25.0,27,0.00,,,0.00,422.000000,,2013-09-08 01:32:00,
2013-09-08 01:42:00,79.0,42.0,-100.00,South,191,17.0,25.0,27,0.00,,,0.00,422.000000,,2013-09-08 01:42:00,
2013-09-08 01:52:00,79.0,42.0,-100.00,South,191,17.0,25.0,27,0.00,,,0.00,422.000000,,2013-09-08 01:52:00,
2013-09-08 02:22:00,75.0,40.0,-100.00,South,190,18.0,22.0,28,0.00,,,0.00,160.000000,,2013-09-08 02:22:00,
2013-09-08 02:32:00,75.0,40.0,-100.00,South,190,18.0,22.0,28,0.00,,,0.00,160.000000,,2013-09-08 02:32:00,
2013-09-08 02:43:00,75.0,40.0,-100.00,South,190,18.0,22.0,28,0.00,,,0.00,160.000000,,2013-09-08 02:43:00,
2013-09-08 02:52:00,75.0,40.0,-100.00,South,190,18.0,22.0,28,0.00,,,0.00,160.000000,,2013-09-08 02:52:00,
2013-09-08 02:53:00,73.0,37.0,-100.00,South,173,9.0,23.0,27,0.00,,,0.00,4.000000,,2013-09-08 02:53:00,
2013-09-08 03:22:00,73.0,37.0,-100.00,South,173,9.0,23.0,27,0.00,,,0.00,4.000000,,2013-09-08 03:22:00,
2013-09-08 03:34:00,73.0,37.0,-100.00,South,173,9.0,23.0,27,0.00,,,0.00,4.000000,,2013-09-08 03:34:00,
2013-09-08 03:44:00,73.0,37.0,-100.00,South,173,9.0,23.0,27,0.00,,,0.00,4.000000,,2013-09-08 03:44:00,
2013-09-08 03:53:00,71.0,35.0,-100.00,South,177,5.0,15.0,27,0.00,,,0.00,0.000000,,2013-09-08 03:53:00,
2013-09-08 04:24:00,71.0,35.0,-100.00,South,177,5.0,15.0,27,0.00,,,0.00,0.000000,,2013-09-08 04:24:00,
2013-09-08 04:34:00,71.0,35.0,-100.00,South,177,5.0,15.0,27,0.00,,,0.00,0.000000,,2013-09-08 04:34:00,
2013-09-08 04:43:00,71.0,35.0,-100.00,South,177,5.0,15.0,27,0.00,,,0.00,0.000000,,2013-09-08 04:43:00,
2013-09-08 05:23:00,69.0,37.0,-100.00,SSW,211,3.0,6.0,31,0.00,,,0.00,0.000000,,2013-09-08 05:23:00,
2013-09-08 05:34:00,69.0,37.0,-100.00,SSW,211,3.0,6.0,31,0.00,,,0.00,0.000000,,2013-09-08 05:34:00,
2013-09-08 05:43:00,69.0,37.0,-100.00,SSW,211,3.0,6.0,31,0.00,,,0.00,0.000000,,2013-09-08 05:43:00,
2013-09-08 05:52:00,69.0,37.0,-100.00,SSW,211,3.0,6.0,31,0.00,,,0.00,0.000000,,2013-09-08 05:52:00,
2013-09-08 05:53:00,69.0,38.0,-100.00,SW,226,0.0,6.0,32,0.00,,,0.00,0.000000,,2013-09-08 05:53:00,
2013-09-08 06:21:00,69.0,38.0,-100.00,SW,226,0.0,6.0,32,0.00,,,0.00,0.000000,,2013-09-08 06:21:00,
2013-09-08 06:33:00,69.0,38.0,-100.00,SW,226,0.0,6.0,32,0.00,,,0.00,0.000000,,2013-09-08 06:33:00,
2013-09-08 06:42:00,69.0,38.0,-100.00,SW,226,0.0,6.0,32,0.00,,,0.00,0.000000,,2013-09-08 06:42:00,
2013-09-08 07:23:00,68.0,38.0,-100.00,SW,216,2.0,5.0,33,0.00,,,-99.99,0.000000,,2013-09-08 07:23:00,
2013-09-08 07:32:00,68.0,38.0,-100.00,SW,216,2.0,5.0,33,0.00,,,-99.99,0.000000,,2013-09-08 07:32:00,
2013-09-08 07:42:00,68.0,38.0,-100.00,SW,216,2.0,5.0,33,0.00,,,-99.99,0.000000,,2013-09-08 07:42:00,
2013-09-08 07:52:00,68.0,38.0,-100.00,SW,216,2.0,5.0,33,0.00,,,-99.99,0.000000,,2013-09-08 07:52:00,
2013-09-08 08:22:00,68.0,38.0,-100.00,NW,317,0.0,5.0,33,0.00,,,0.00,0.000000,,2013-09-08 08:22:00,
2013-09-08 08:32:00,68.0,38.0,-100.00,NW,317,0.0,5.0,33,0.00,,,0.00,0.000000,,2013-09-08 08:32:00,
2013-09-08 08:42:00,68.0,38.0,-100.00,NW,317,0.0,5.0,33,0.00,,,0.00,0.000000,,2013-09-08 08:42:00,
2013-09-08 08:52:00,68.0,38.0,-100.00,NW,317,0.0,5.0,33,0.00,,,0.00,0.000000,,2013-09-08 08:52:00,
2013-09-08 08:53:00,68.0,36.0,-100.00,SW,223,2.0,5.0,31,0.00,,,0.00,0.000000,,2013-09-08 08:53:00,
2013-09-08 09:22:00,68.0,36.0,-100.00,SW,223,2.0,5.0,31,0.00,,,0.00,0.000000,,2013-09-08 09:22:00,
2013-09-08 09:33:00,68.0,36.0,-100.00,SW,223,2.0,5.0,31,0.00,,,0.00,0.000000,,2013-09-08 09:33:00,
2013-09-08 09:43:00,68.0,36.0,-100.00,SW,223,2.0,5.0,31,0.00,,,0.00,0.000000,,2013-09-08 09:43:00,
2013-09-08 09:53:00,68.0,35.0,-100.00,SW,226,2.0,6.0,29,0.00,,,0.00,0.000000,,2013-09-08 09:53:00,
2013-09-08 10:23:00,68.0,35.0,-100.00,SW,226,2.0,6.0,29,0.00,,,0.00,0.000000,,2013-09-08 10:23:00,
2013-09-08 10:33:00,68.0,35.0,-100.00,SW,226,2.0,6.0,29,0.00,,,0.00,0.000000,,2013-09-08 10:33:00,
2013-09-08 10:42:00,68.0,35.0,-100.00,SW,226,2.0,6.0,29,0.00,,,0.00,0.000000,,2013-09-08 10:42:00,
2013-09-08 11:21:00,68.0,34.0,-100.00,SW,219,0.0,5.0,28,0.00,,,0.00,0.000000,,2013-09-08 11:21:00,
2013-09-08 11:33:00,68.0,34.0,-100.00,SW,219,0.0,5.0,28,0.00,,,0.00,0.000000,,2013-09-08 11:33:00,
2013-09-08 11:42:00,68.0,34.0,-100.00,SW,219,0.0,5.0,28,0.00,,,0.00,0.000000,,2013-09-08 11:42:00,
2013-09-08 11:52:00,68.0,34.0,-100.00,SW,219,0.0,5.0,28,0.00,,,0.00,0.000000,,2013-09-08 11:52:00,
2013-09-08 12:22:00,70.0,35.0,-100.00,North,7,2.0,6.0,28,0.00,,,0.00,0.000000,,2013-09-08 12:22:00,
2013-09-08 12:32:00,70.0,35.0,-100.00,North,7,2.0,6.0,28,0.00,,,0.00,0.000000,,2013-09-08 12:32:00,
2013-09-08 12:42:00,70.0,35.0,-100.00,North,7,2.0,6.0,28,0.00,,,0.00,0.000000,,2013-09-08 12:42:00,
2013-09-08 12:52:00,70.0,35.0,-100.00,North,7,2.0,6.0,28,0.00,,,0.00,0.000000,,2013-09-08 12:52:00,
2013-09-08 13:22:00,69.0,35.0,-100.00,NNW,329,0.0,4.0,29,0.00,,,0.00,0.000000,,2013-09-08 13:22:00,
2013-09-08 13:32:00,69.0,35.0,-100.00,NNW,329,0.0,4.0,29,0.00,,,0.00,0.000000,,2013-09-08 13:32:00,
2013-09-08 13:42:00,69.0,35.0,-100.00,NNW,329,0.0,4.0,29,0.00,,,0.00,0.000000,,2013-09-08 13:42:00,
2013-09-08 13:52:00,69.0,35.0,-100.00,NNW,329,0.0,4.0,29,0.00,,,0.00,0.000000,,2013-09-08 13:52:00,
2013-09-08 14:22:00,69.0,36.0,-100.00,NE,39,3.0,6.0,30,0.00,,,0.00,3.000000,,2013-09-08 14:22:00,
2013-09-08 14:31:00,69.0,36.0,-100.00,NE,39,3.0,6.0,30,0.00,,,0.00,3.000000,,2013-09-08 14:31:00,
2013-09-08 14:42:00,69.0,36.0,-100.00,NE,39,3.0,6.0,30,0.00,,,0.00,3.000000,,2013-09-08 14:42:00,
2013-09-08 14:52:00,69.0,36.0,-100.00,NE,39,3.0,6.0,30,0.00,,,0.00,3.000000,,2013-09-08 14:52:00,
2013-09-08 14:53:00,74.0,37.0,-100.00,ENE,61,4.0,7.0,26,0.00,,,0.00,83.000000,,2013-09-08 14:53:00,
2013-09-08 15:23:00,74.0,37.0,-100.00,ENE,61,4.0,7.0,26,0.00,,,0.00,83.000000,,2013-09-08 15:23:00,
2013-09-08 15:34:00,74.0,37.0,-100.00,ENE,61,4.0,7.0,26,0.00,,,0.00,83.000000,,2013-09-08 15:34:00,
2013-09-08 15:45:00,74.0,37.0,-100.00,ENE,61,4.0,7.0,26,0.00,,,0.00,83.000000,,2013-09-08 15:45:00,
2013-09-08 15:53:00,79.0,37.0,-100.00,NE,40,5.0,7.0,22,0.00,,,0.00,337.000000,,2013-09-08 15:53:00,
2013-09-08 16:23:00,79.0,37.0,-100.00,NE,40,5.0,7.0,22,0.00,,,0.00,337.000000,,2013-09-08 16:23:00,
2013-09-08 16:34:00,79.0,37.0,-100.00,NE,40,5.0,7.0,22,0.00,,,0.00,337.000000,,2013-09-08 16:34:00,
2013-09-08 16:43:00,79.0,37.0,-100.00,NE,40,5.0,7.0,22,0.00,,,0.00,337.000000,,2013-09-08 16:43:00,
2013-09-08 18:22:00,81.0,37.0,-100.00,NW,320,9.0,13.0,21,-99.99,,,0.00,804.000000,,2013-09-08 18:22:00,
2013-09-08 18:32:00,81.0,37.0,-100.00,NW,320,9.0,13.0,21,-99.99,,,0.00,804.000000,,2013-09-08 18:32:00,
2013-09-08 18:42:00,81.0,37.0,-100.00,NW,320,9.0,13.0,21,-99.99,,,0.00,804.000000,,2013-09-08 18:42:00,
2013-09-08 18:52:00,81.0,37.0,-100.00,NW,320,9.0,13.0,21,-99.99,,,0.00,804.000000,,2013-09-08 18:52:00,
2013-09-08 19:22:00,85.0,37.0,-100.00,NNW,338,7.0,14.0,18,0.00,,,0.00,955.000000,,2013-09-08 19:22:00,
2013-09-08 19:32:00,85.0,37.0,-100.00,NNW,338,7.0,14.0,18,0.00,,,0.00,955.000000,,2013-09-08 19:32:00,
2013-09-08 19:42:00,85.0,37.0,-100.00,NNW,338,7.0,14.0,18,0.00,,,0.00,955.000000,,2013-09-08 19:42:00,
2013-09-08 19:52:00,85.0,37.0,-100.00,NNW,338,7.0,14.0,18,0.00,,,0.00,955.000000,,2013-09-08 19:52:00,
2013-09-08 19:53:00,85.0,37.0,-100.00,WNW,297,8.0,16.0,18,0.00,,,0.00,1067.000000,,2013-09-08 19:53:00,
2013-09-08 20:22:00,85.0,37.0,-100.00,WNW,297,8.0,16.0,18,0.00,,,0.00,1067.000000,,2013-09-08 20:22:00,
2013-09-08 20:32:00,85.0,37.0,-100.00,WNW,297,8.0,16.0,18,0.00,,,0.00,1067.000000,,2013-09-08 20:32:00,
2013-09-08 20:42:00,85.0,37.0,-100.00,WNW,297,8.0,16.0,18,0.00,,,0.00,1067.000000,,2013-09-08 20:42:00,
2013-09-08 20:53:00,89.0,37.0,-100.00,WSW,251,6.0,16.0,16,0.00,,,0.00,1088.000000,,2013-09-08 20:53:00,
2013-09-08 21:22:00,89.0,37.0,-100.00,WSW,251,6.0,16.0,16,0.00,,,0.00,1088.000000,,2013-09-08 21:22:00,
2013-09-08 21:34:00,89.0,37.0,-100.00,WSW,251,6.0,16.0,16,0.00,,,0.00,1088.000000,,2013-09-08 21:34:00,
2013-09-08 21:43:00,89.0,37.0,-100.00,WSW,251,6.0,16.0,16,0.00,,,0.00,1088.000000,,2013-09-08 21:43:00,
2013-09-08 21:53:00,83.0,42.0,-100.00,South,189,18.0,24.0,24,0.00,,,0.00,1068.000000,,2013-09-08 21:53:00,
2013-09-08 22:24:00,83.0,42.0,-100.00,South,189,18.0,24.0,24,0.00,,,0.00,1068.000000,,2013-09-08 22:24:00,
2013-09-08 22:33:00,83.0,42.0,-100.00,South,189,18.0,24.0,24,0.00,,,0.00,1068.000000,,2013-09-08 22:33:00,
2013-09-08 22:43:00,83.0,42.0,-100.00,South,189,18.0,24.0,24,0.00,,,0.00,1068.000000,,2013-09-08 22:43:00,
2013-09-08 23:22:00,82.0,46.0,-100.00,South,191,15.0,26.0,28,0.00,,,0.00,710.000000,,2013-09-08 23:22:00,
2013-09-08 23:34:00,82.0,46.0,-100.00,South,191,15.0,26.0,28,0.00,,,0.00,710.000000,,2013-09-08 23:34:00,
2013-09-08 23:42:00,82.0,46.0,-100.00,South,191,15.0,26.0,28,0.00,,,0.00,710.000000,,2013-09-08 23:42:00,
2013-09-08 23:52:00,82.0,46.0,-100.00,South,191,15.0,26.0,28,0.00,,,0.00,710.000000,,2013-09-08 23:52:00,